Location: Asheville, NC
(35.6000°N, 82.5500°W)
Time: 18:39:51
(UTC-05:00)

Vanguard 1 - Pass Details

Date: 15 February 2018
Orbit: 650 x 3833 km, 34.2° (Epoch: 16 February)

Event Time Altitude Azimuth Distance (km) Brightness Sun altitude
Rises 21:41:47 0° 276° (W) 3,108 13.4 -42.9°
Enters shadow 21:43:47 - 269° (W) 2,308 12.6 -43.2°
Reaches altitude 10° 21:44:24 10° 266° (W) 2,074 - -43.4°
Maximum altitude 21:48:20 31° 202° (SSW) 1,134 - -44.1°
Drops below altitude 10° 21:52:34 10° 139° (SE) 2,223 - -44.9°
Sets 21:55:29 0° 130° (SE) 3,378 - -45.5°
